Hourly Data Report for July 28, 2017

QUALICUM BEACH AIRPORT
BRITISH COLUMBIA

49°20'14.000" N
124°23'38.000" W
58.20 m
1026562
71766
VOQ

Download Data

Hourly Data (July 2017)
Hourly Data Report for July 28, 2017
TIME
LST
Temp Definition
°C
Dew Point Definition
°C
Rel Hum Definition
%
Precip. Amount Definition
mm

Wind Dir Definition
10's deg

Wind Spd Definition
km/h
Visibility Definition
km
Stn Press Definition
kPa
Hmdx Definition


Wind Chill Definition


Weather Definition


00:00 14.6 13.6 94 0.0 29 3   101.18     LegendNANA
01:00 13.4 12.2 93 0.0 0 1   101.18     LegendNANA
02:00 14.5 13.1 91 0.0 30 7   101.20     LegendNANA
03:00 13.6 12.6 93 0.0 24 2   101.21     LegendNANA
04:00 13.4 12.3 94 0.0 0 1   101.21     LegendNANA
05:00 12.7 12.0 96 0.0 25 1   101.22     LegendNANA
06:00 13.2 12.1 93 0.0 0 1   101.23     LegendNANA
07:00 18.0 13.1 73 0.0 35 4   101.26     LegendNANA
08:00 18.3 11.5 65 0.0 36 5   101.26     LegendNANA
09:00 18.8 12.4 66 0.0 5 8   101.24     LegendNANA
10:00 19.2 11.2 60 0.0 2 6   101.24     LegendNANA
11:00 19.4 12.0 62 0.0 6 10   101.22     LegendNANA
12:00 20.0 13.5 66 0.0 9 11   101.19     LegendNANA
13:00 20.9 11.9 56 0.0 9 11   101.13     LegendNANA
14:00 21.9 11.8 53 0.0 9 10   101.11     LegendNANA
15:00 23.0 11.7 49 0.0 11 11   101.07 25   LegendNANA
16:00 24.1 12.8 49 0.0 10 9   101.01 27   LegendNANA
17:00 23.7 12.7 50 0.0 8 8   100.98 26   LegendNANA
18:00 23.0 12.5 52 0.0 10 8   100.97 26   LegendNANA
19:00 22.5 13.2 56 0.0 9 3   100.97 25   LegendNANA
20:00 18.7 13.9 74 0.0 10 3   100.97     LegendNANA
21:00 17.5 14.4 82 0.0 14 2   101.01     LegendNANA
22:00 16.6 14.8 89 0.0   0   101.04     LegendNANA
23:00 15.0 13.9 93 0.0   0   101.04     LegendNANA

Notes on Data Quality.

Legend

  • E = Estimated
  • M = Missing
  • NA = Not Available*
  • [empty] = Indicates an unobserved value
Date modified: